Вернуться в каталог

COSMOS 860 COOLANT

АктивенLEO
NORAD 29195·DEBRIS·🇷🇺 Russia

Запущен Oct 17, 1976 с Baikonur Cosmodrome

Loading…

Ближайшие Пролёты (ближайшие 24 часа)

TLE

УстаревающийSource: Space-Track

Эпоха: Sep 11, 2026, 06:52 UTC

1 29195U 76103H   26254.28646960  .00000096  00000-0  15770-3 0  9991
2 29195  64.6973 135.7647 0052048 178.5055 181.6169 13.87326719651614

Отслеживайте COSMOS 860 COOLANT в реальном времени с AllMySat

Download on the App Store